This is the latest recevied weather packets stored in our database for station/object WB4ZUT. If no packets are shown the sender has not sent any weather packets the latest 10 day(s).
| Time | Temp. | Humidity | Pressure | Rain* | Wind** | Luminosity | Snow |
|---|---|---|---|---|---|---|---|
| 1777944409 | 23.33° C | 49% | 1005.5 hPa | 0 mm | - | 0 W/m² | - |
| 1777944106 | 23.33° C | 49% | 1005.7 hPa | 0 mm | - | 0 W/m² | - |
| 1777943801 | 23.89° C | 49% | 1005.2 hPa | 0 mm | - | 0 W/m² | - |
| 1777943494 | 23.89° C | 48% | 1005.5 hPa | 0 mm | - | 0 W/m² | - |
| 1777943194 | 23.89° C | 48% | 1005.4 hPa | 0 mm | - | 0 W/m² | - |
| 1777942891 | 23.89° C | 47% | 1005.3 hPa | 0 mm | - | 0 W/m² | - |
| 1777942587 | 23.89° C | 46% | 1005 hPa | 0 mm | - | 0 W/m² | - |
| 1777942284 | 23.89° C | 46% | 1005.1 hPa | 0 mm | - | 0 W/m² | - |
| 1777941981 | 23.89° C | 45% | 1005 hPa | 0 mm | - | 0 W/m² | - |
| 1777941678 | 24.44° C | 45% | 1005.1 hPa | 0 mm | - | 1 W/m² | - |
| 1777941375 | 24.44° C | 44% | 1005 hPa | 0 mm | - | 3 W/m² | - |
| 1777941073 | 24.44° C | 44% | 1005.2 hPa | 0 mm | - | 5 W/m² | - |
| 1777940768 | 25° C | 43% | 1005 hPa | 0 mm | - | 7 W/m² | - |
| 1777940467 | 25° C | 45% | 1004.8 hPa | 0 mm | - | 12 W/m² | - |
| 1777940164 | 25° C | 45% | 1004.9 hPa | 0 mm | - | 19 W/m² | - |
| 1777939861 | 25.56° C | 44% | 1004.5 hPa | 0 mm | - | 34 W/m² | - |
| 1777939558 | 25.56° C | 43% | 1004.5 hPa | 0 mm | - | 52 W/m² | - |
| 1777939256 | 25° C | 44% | 1004.5 hPa | 0 mm | - | 56 W/m² | - |
| 1777938952 | 25.56° C | 44% | 1004.5 hPa | 0 mm | - | 54 W/m² | - |
| 1777938649 | 25.56° C | 44% | 1004.4 hPa | 0 mm | - | 51 W/m² | - |
| 1777938346 | 25° C | 45% | 1004.5 hPa | 0 mm | - | 77 W/m² | - |
| 1777938043 | 25° C | 45% | 1004.5 hPa | 0 mm | - | 56 W/m² | - |
| 1777937738 | 25.56° C | 45% | 1004.6 hPa | 0 mm | - | 55 W/m² | - |
| 1777937435 | 25.56° C | 45% | 1004.8 hPa | 0 mm | - | 54 W/m² | - |
| 1777937132 | 25.56° C | 45% | 1004.6 hPa | 0 mm | - | 101 W/m² | - |
* Rain latest hour (hover to see other rain measurements)
** Current wind speed in m/s (hover to see current wind gust speed)